Weather History for Sable Island, NS

Change the Weather History Date:

Tuesday, January 22, 2013

  Actual Average Record
Temperature  
Mean Temperature 27 °F -  
Max Temperature 31 °F 33 °F 48 °F (2006)
Min Temperature 23 °F 23 °F 14 °F (2008)
Degree Days  
Heating Degree Days 38    
Moisture  
Dew Point 25 °F    
Average Humidity 90    
Maximum Humidity 100    
Minimum Humidity 60    
Precipitation  
Precipitation 0.28 in - - ()
Sea Level Pressure  
Sea Level Pressure 29.63 in    
Wind  
Wind Speed 19 mph ()    
Max Wind Speed 40 mph    
Max Gust Speed 47 mph    
Visibility 1.7 miles    
Events Rain , Snow    
Averages and records for this station are not official NWS values.
T = Trace of Precipitation, MM = Missing Value Source: Averaged Metar Reports

Daily Weather History Graph

Daily Weather History Graph

Search for Another Location

Airport:

Trip Planner

Search our weather history database for the weather conditions in past years. The results will help you decide how hot, cold, wet, or windy it might be!

Date:

Astronomy

Jan. 22, 2013 Rise Set
Actual Time 7:26 AM AST 4:57 PM AST
Civil Twilight 6:55 AM AST 5:28 PM AST
Nautical Twilight 6:19 AM AST 6:03 PM AST
Astronomical Twilight 5:45 AM AST 6:38 PM AST
Moon 1:14 PM AST (1/22) 3:45 AM AST (1/22)
Length of Visible Light 10h 33m
Length of Day
9h 30m
Waxing Gibbous, 82% of the Moon is Illuminated
Jan 22
Waxing Gibbous
Jan 27
Full
Feb 3
Last Quarter
Feb 10
New
Feb 17
First Quarter

Hourly Weather History & Observations

Time (AST) Temp. Windchill Dew Point Humidity Pressure Visibility Wind Dir Wind Speed Gust Speed Precip Events Conditions
12:00 AM 30.2 °F 19.8 °F 17.6 °F 60% 29.97 in 9.0 mi West 13.8 mph - N/A   Mostly Cloudy
1:00 AM 30.2 °F 20.2 °F 17.6 °F 60% 29.96 in 9.0 mi West 12.7 mph - N/A   Overcast
1:45 AM 30.2 °F 19.8 °F 21.2 °F 69% 29.95 in 7.0 mi WNW 13.8 mph 19.6 mph N/A Snow Light Snow
2:00 AM 29 °F - 23 °F 69% 29.96 in 3 mi NW 13.8 mph - -   Unknown Precipitation
2:00 AM 30.2 °F 19.3 °F 23.0 °F 75% 29.96 in 3.5 mi NW 15.0 mph - N/A Snow Light Snow
2:19 AM 28.4 °F 18.5 °F 23.0 °F 80% 29.94 in 3.0 mi NW 11.5 mph - N/A Snow Light Snow
2:23 AM 28.4 °F 19.7 °F 24.8 °F 86% 29.95 in 2.5 mi WNW 9.2 mph - N/A Snow Light Snow
2:44 AM 28.4 °F 22.2 °F 24.8 °F 86% 29.93 in 1.4 mi NNW 5.8 mph - N/A Snow Light Snow
2:45 AM 28.4 °F 21.2 °F 24.8 °F 86% 29.93 in 1.2 mi North 6.9 mph - N/A Snow Light Snow
3:00 AM 28.4 °F 19.7 °F 24.8 °F 86% 29.92 in 1.1 mi NNW 9.2 mph - N/A Snow Light Snow
3:13 AM 28.4 °F 19.1 °F 23.0 °F 80% 29.90 in 2.0 mi North 10.4 mph - N/A Snow Light Snow
3:46 AM 26.6 °F 16.2 °F 24.8 °F 93% 29.90 in 2.5 mi NNE 11.5 mph - N/A Snow Light Snow
3:47 AM 28.4 °F 18.5 °F 24.8 °F 86% 29.90 in 4.0 mi North 11.5 mph - N/A Snow Light Snow
4:00 AM 26.6 °F 16.8 °F 24.8 °F 93% 29.91 in 2.5 mi North 10.4 mph - N/A Snow Light Snow
4:29 AM 28.4 °F 18.0 °F 24.8 °F 86% 29.87 in 2.5 mi NNE 12.7 mph 19.6 mph N/A Snow Light Snow
4:50 AM 28.4 °F 17.0 °F 24.8 °F 86% 29.86 in 3.0 mi NE 15.0 mph - N/A Snow Light Snow
5:00 AM 28 °F - 25 °F 82% 29.83 in 3 mi NNE 16.1 mph - - Snow Light Snow
5:00 AM 28.4 °F 16.2 °F 24.8 °F 86% 29.83 in 3.0 mi NNE 17.3 mph - N/A Snow Light Snow
5:01 AM 26.6 °F 13.4 °F 24.8 °F 93% 29.83 in 2.5 mi NE 18.4 mph - N/A Snow Light Snow
5:13 AM 26.6 °F 13.4 °F 24.8 °F 93% 29.81 in 1.4 mi NNE 18.4 mph - N/A Snow Light Snow
5:19 AM 28.4 °F 16.6 °F 24.8 °F 86% 29.80 in 1.2 mi NE 16.1 mph 21.9 mph N/A Snow Light Snow
5:45 AM 26.6 °F 14.3 °F 24.8 °F 93% 29.79 in 2.1 mi ENE 16.1 mph - N/A Snow Light Snow
5:54 AM 26.6 °F 13.1 °F 24.8 °F 93% 29.76 in 2.0 mi ENE 19.6 mph - N/A Snow Light Snow
6:00 AM 28.4 °F 15.8 °F 24.8 °F 86% 29.77 in 2.5 mi ENE 18.4 mph 24.2 mph N/A Snow Light Snow
6:13 AM 28.4 °F 15.4 °F 24.8 °F 86% 29.74 in 1.8 mi ENE 19.6 mph 25.3 mph N/A Snow Light Snow
6:37 AM 28.4 °F 15.1 °F 24.8 °F 86% 29.75 in 2.4 mi ENE 20.7 mph - N/A Snow Light Snow
6:49 AM 28.4 °F 15.1 °F 24.8 °F 86% 29.72 in 2.1 mi ENE 20.7 mph - N/A Rain Light Freezing Rain
7:00 AM 28.4 °F 14.4 °F 23.0 °F 80% 29.73 in 2.0 mi ENE 23.0 mph - N/A Rain Light Freezing Rain
7:12 AM 28.4 °F 14.1 °F 24.8 °F 86% 29.70 in 1.4 mi ENE 24.2 mph - N/A Rain Light Freezing Rain
7:16 AM 28.4 °F 15.1 °F 26.6 °F 93% 29.70 in 1.2 mi ENE 20.7 mph 27.6 mph N/A Rain Light Freezing Rain
7:30 AM 28.4 °F 14.7 °F 24.8 °F 86% 29.70 in 1.0 mi East 21.9 mph 27.6 mph N/A Snow Light Snow
7:34 AM 28.4 °F 14.7 °F 26.6 °F 93% 29.70 in 1.0 mi ENE 21.9 mph - N/A Snow Light Snow
7:46 AM 28.4 °F 14.4 °F 24.8 °F 86% 29.69 in 0.6 mi ENE 23.0 mph 28.8 mph N/A Snow Snow
7:47 AM 28.4 °F 14.7 °F 26.6 °F 93% 29.69 in 0.6 mi ENE 21.9 mph 28.8 mph N/A Snow Snow
7:57 AM 28.4 °F 14.1 °F 26.6 °F 93% 29.68 in 0.5 mi ENE 24.2 mph - N/A Snow Light Snow
8:00 AM 29 °F - 27 °F 89% 29.69 in 0 mi ENE 21.9 mph - -   Unknown Precipitation
8:00 AM 28.4 °F 14.7 °F 26.6 °F 93% 29.69 in 0.5 mi ENE 21.9 mph 28.8 mph N/A Snow Light Snow
8:01 AM 28.4 °F 14.4 °F 26.6 °F 93% 29.68 in 0.4 mi ENE 23.0 mph 28.8 mph N/A Snow Light Snow
8:10 AM 28.4 °F 14.7 °F 26.6 °F 93% 29.67 in 0.4 mi ENE 21.9 mph 28.8 mph N/A Snow Light Snow
8:48 AM 30.2 °F 18.1 °F 30.2 °F 100% 29.66 in 0.2 mi ENE 18.4 mph 28.8 mph N/A Snow Light Snow
8:49 AM 30.2 °F 18.1 °F 30.2 °F 100% 29.67 in 0.2 mi East 18.4 mph 28.8 mph N/A Snow Light Snow
9:00 AM 28.4 °F 15.4 °F 28.4 °F 100% 29.66 in 0.2 mi ENE 19.6 mph 28.8 mph N/A Snow Light Snow
9:06 AM 28.4 °F 15.4 °F 28.4 °F 100% 29.66 in 0.1 mi ENE 19.6 mph 27.6 mph N/A Snow Light Snow
9:26 AM 28.4 °F 14.4 °F 26.6 °F 93% 29.64 in 0.1 mi ENE 23.0 mph 28.8 mph N/A Snow Snow
10:00 AM 30.2 °F 17.4 °F 30.2 °F 100% 29.60 in 0.1 mi ENE 20.7 mph - N/A Snow Snow
10:14 AM 28.4 °F 14.4 °F 28.4 °F 100% 29.58 in 0.1 mi NE 23.0 mph 29.9 mph N/A Snow Light Snow
10:35 AM 28.4 °F 13.8 °F 28.4 °F 100% 29.51 in 0.1 mi ENE 25.3 mph 33.4 mph N/A Snow Light Snow
10:56 AM 30.2 °F 14.7 °F 26.6 °F 86% 29.47 in 0.1 mi ENE 32.2 mph - N/A Snow Light Snow
11:00 AM 29 °F - 29 °F 100% 29.53 in 0 mi ENE 26.5 mph - - Snow Light Snow
11:00 AM 30.2 °F 18.1 °F 30.2 °F 100% 29.53 in 0.1 mi NE 18.4 mph 36.8 mph N/A Snow Light Snow
11:07 AM 28.4 °F 11.8 °F 26.6 °F 93% 29.47 in 0.1 mi ENE 34.5 mph - N/A Snow Light Snow
11:09 AM 30.2 °F 15.4 °F 28.4 °F 93% 29.47 in 0.1 mi ENE 28.8 mph 38.0 mph N/A Snow Light Snow
11:19 AM 30.2 °F 16.8 °F 28.4 °F 93% 29.49 in 0.5 mi ENE 23.0 mph 31.1 mph N/A Snow Light Snow
11:20 AM 30.2 °F 16.5 °F 28.4 °F 93% 29.48 in 0.6 mi ENE 24.2 mph 29.9 mph N/A Snow Light Snow
11:25 AM 30.2 °F 16.5 °F 28.4 °F 93% 29.48 in 0.6 mi NE 24.2 mph 31.1 mph N/A Snow Light Snow
11:33 AM 30.2 °F 16.5 °F 28.4 °F 93% 29.46 in 1.0 mi NE 24.2 mph 31.1 mph N/A Snow Light Snow
12:00 PM 30.2 °F 15.2 °F 28.4 °F 93% 29.41 in 0.6 mi NE 29.9 mph 35.7 mph N/A Snow Light Snow
12:32 PM 30.2 °F 16.5 °F 28.4 °F 93% 29.36 in 1.0 mi NE 24.2 mph 35.7 mph N/A Snow Light Snow
12:45 PM 30.2 °F 15.7 °F 28.4 °F 93% 29.35 in 1.5 mi ENE 27.6 mph 34.5 mph N/A Snow Light Snow
12:46 PM 30.2 °F 15.7 °F 28.4 °F 93% 29.35 in 1.4 mi ENE 27.6 mph 34.5 mph N/A Snow Light Snow
1:00 PM 30.2 °F 16.2 °F 28.4 °F 93% 29.35 in 1.2 mi NE 25.3 mph 36.8 mph N/A Snow Light Snow
1:07 PM 30.2 °F 15.7 °F 26.6 °F 86% 29.35 in 1.2 mi NE 27.6 mph 35.7 mph N/A Snow Light Snow
1:17 PM 30.2 °F 16.5 °F 28.4 °F 93% 29.36 in 1.4 mi NE 24.2 mph 33.4 mph N/A Rain Light Freezing Rain
1:29 PM 30.2 °F 16.5 °F 28.4 °F 93% 29.37 in 1.0 mi NNE 24.2 mph 34.5 mph N/A Rain Light Freezing Rain
1:33 PM 30.2 °F 16.2 °F 28.4 °F 93% 29.36 in 1.0 mi NNE 25.3 mph 34.5 mph N/A Rain Light Freezing Rain
1:36 PM 30.2 °F 15.7 °F 26.6 °F 86% 29.36 in 0.6 mi NNE 27.6 mph 34.5 mph N/A Rain Light Freezing Rain
1:37 PM 30.2 °F 16.2 °F 28.4 °F 93% 29.36 in 0.6 mi NNE 25.3 mph 32.2 mph N/A Snow Light Snow
1:46 PM 30.2 °F 15.4 °F 30.2 °F 100% 29.35 in 0.6 mi NNE 28.8 mph 35.7 mph N/A Snow Light Snow
1:48 PM 30.2 °F 15.4 °F 28.4 °F 93% 29.35 in 0.5 mi NNE 28.8 mph 35.7 mph N/A Snow Light Snow
1:49 PM 30.2 °F 15.4 °F 28.4 °F 93% 29.34 in 0.4 mi NNE 28.8 mph 35.7 mph N/A Snow Light Snow
2:00 PM 30 °F - 28 °F 87% 29.37 in 0 mi NNE 27.6 mph - -   Unknown Precipitation
2:00 PM 30.2 °F 15.2 °F 28.4 °F 93% 29.37 in 0.2 mi NNE 29.9 mph - N/A Snow Light Snow
2:01 PM 30.2 °F 14.9 °F 28.4 °F 93% 29.35 in 0.1 mi NNE 31.1 mph 36.8 mph N/A Snow Light Snow
2:37 PM 28.4 °F 11.6 °F 28.4 °F 100% 29.38 in 0.1 mi North 35.7 mph 47.2 mph N/A Snow Light Snow
2:55 PM 26.6 °F 9.1 °F 26.6 °F 100% 29.39 in 0.1 mi North 35.7 mph 44.9 mph N/A Snow Light Snow
3:00 PM 26.6 °F 8.7 °F 26.6 °F 100% 29.40 in 0.1 mi North 38.0 mph 46.0 mph N/A Snow Light Snow
3:07 PM 26.6 °F 8.3 °F 26.6 °F 100% 29.40 in 0.1 mi North 40.3 mph 46.0 mph N/A Snow Light Snow
3:41 PM 26.6 °F 8.5 °F 26.6 °F 100% 29.43 in 0.2 mi North 39.1 mph 46.0 mph N/A Snow Light Snow
4:00 PM 24.8 °F 6.4 °F 24.8 °F 100% 29.44 in 0.2 mi North 36.8 mph 43.7 mph N/A Snow Light Snow
4:33 PM 24.8 °F 7.9 °F 24.8 °F 100% 29.46 in 0.6 mi North 29.9 mph 39.1 mph N/A Snow Light Snow
4:55 PM 24.8 °F 7.1 °F 24.8 °F 100% 29.47 in 1.0 mi North 33.4 mph - N/A Snow Light Snow
5:00 PM 26 °F - 26 °F 98% 29.48 in 1 mi North 31.1 mph - - Snow Light Snow
5:00 PM 26.6 °F 10.0 °F 26.6 °F 100% 29.48 in 1.1 mi North 31.1 mph 38.0 mph N/A Snow Light Snow
5:18 PM 26.6 °F 10.6 °F 26.6 °F 100% 29.49 in 1.4 mi North 28.8 mph 35.7 mph N/A   Unknown
5:21 PM 26.6 °F 10.6 °F 26.6 °F 100% 29.49 in 3.0 mi North 28.8 mph 35.7 mph N/A   Unknown
5:24 PM 26.6 °F 10.8 °F 26.6 °F 100% 29.49 in 3.0 mi North 27.6 mph 35.7 mph N/A   Overcast
6:00 PM 26.6 °F 11.1 °F 21.2 °F 80% 29.51 in 4.0 mi NNE 26.5 mph - N/A   Overcast
7:00 PM 26.6 °F 12.0 °F 21.2 °F 80% 29.56 in 8.0 mi North 23.0 mph - N/A   Overcast
8:00 PM 26 °F - 21 °F 72% 29.60 in 6 mi North 19.6 mph - -   Unknown Precipitation
8:00 PM 26.6 °F 13.1 °F 21.2 °F 80% 29.60 in 6.0 mi North 19.6 mph - N/A   Overcast
8:04 PM 26.6 °F 13.1 °F 21.2 °F 80% 29.59 in 3.5 mi North 19.6 mph - N/A Snow Light Snow
8:08 PM 26.6 °F 13.1 °F 21.2 °F 80% 29.60 in 2.4 mi North 19.6 mph - N/A Snow Light Snow
8:18 PM 26.6 °F 14.3 °F 23.0 °F 86% 29.62 in 1.6 mi North 16.1 mph 21.9 mph N/A Snow Light Snow
8:22 PM 24.8 °F 10.7 °F 23.0 °F 93% 29.62 in 1.4 mi North 19.6 mph - N/A Snow Light Snow
8:23 PM 24.8 °F 10.7 °F 23.0 °F 93% 29.62 in 1.2 mi North 19.6 mph - N/A Snow Light Snow
8:38 PM 26.6 °F 13.4 °F 21.2 °F 80% 29.62 in 3.5 mi North 18.4 mph 24.2 mph N/A Snow Light Snow
8:43 PM 26.6 °F 12.7 °F 23.0 °F 86% 29.64 in 2.0 mi NNW 20.7 mph - N/A Snow Light Snow
8:44 PM 26.6 °F 12.7 °F 24.8 °F 93% 29.64 in 1.2 mi NNW 20.7 mph - N/A Snow Light Snow
8:45 PM 26.6 °F 12.7 °F 24.8 °F 93% 29.64 in 1.0 mi NNW 20.7 mph - N/A Snow Light Snow
8:46 PM 24.8 °F 10.3 °F 24.8 °F 100% 29.64 in 0.6 mi NNW 20.7 mph - N/A Snow Light Snow
8:49 PM 24.8 °F 9.6 °F 23.0 °F 93% 29.65 in 0.4 mi NNW 23.0 mph - N/A Snow Light Snow
8:58 PM 24.8 °F 10.3 °F 23.0 °F 93% 29.65 in 0.2 mi NNW 20.7 mph 27.6 mph N/A Snow Light Snow
9:00 PM 24.8 °F 10.0 °F 23.0 °F 93% 29.65 in 0.2 mi NNW 21.9 mph 27.6 mph N/A Snow Light Snow
9:08 PM 24.8 °F 10.0 °F 23.0 °F 93% 29.65 in 0.8 mi NNW 21.9 mph 27.6 mph N/A Snow Light Snow
9:14 PM 24.8 °F 9.3 °F 23.0 °F 93% 29.66 in 0.6 mi NNW 24.2 mph - N/A Snow Light Snow
9:21 PM 24.8 °F 8.7 °F 23.0 °F 93% 29.66 in 0.4 mi NNW 26.5 mph - N/A Snow Light Snow
9:27 PM 24.8 °F 8.4 °F 23.0 °F 93% 29.67 in 0.4 mi NNW 27.6 mph - N/A Snow Light Snow
9:39 PM 23.0 °F 6.6 °F 23.0 °F 100% 29.67 in 0.8 mi NNW 25.3 mph 31.1 mph N/A Snow Light Snow
9:50 PM 24.8 °F 10.0 °F 21.2 °F 86% 29.68 in 1.5 mi NNW 21.9 mph 29.9 mph N/A Snow Light Snow
9:55 PM 24.8 °F 9.3 °F 21.2 °F 86% 29.68 in 2.1 mi NNW 24.2 mph 31.1 mph N/A Snow Light Snow
10:00 PM 24.8 °F 10.0 °F 21.2 °F 86% 29.69 in 2.5 mi NNW 21.9 mph 31.1 mph N/A   Unknown
10:07 PM 24.8 °F 9.6 °F 19.4 °F 80% 29.69 in 2.5 mi NW 23.0 mph 29.9 mph N/A Snow Light Snow
10:13 PM 23.0 °F 6.9 °F 21.2 °F 93% 29.69 in 1.4 mi NNW 24.2 mph 33.4 mph N/A Snow Light Snow
10:19 PM 24.8 °F 9.3 °F 23.0 °F 93% 29.69 in 1.1 mi NNW 24.2 mph 29.9 mph N/A Snow Light Snow
10:52 PM 23.0 °F 7.2 °F 17.6 °F 80% 29.71 in 2.5 mi NW 23.0 mph 28.8 mph N/A Snow Light Snow
11:00 PM 23 °F - 17 °F 69% 29.72 in 5 mi NNW 23.0 mph - -   Overcast
11:00 PM 23.0 °F 7.2 °F 17.6 °F 80% 29.72 in 5.0 mi NW 23.0 mph - N/A   Overcast
11:36 PM 23.0 °F 7.2 °F 17.6 °F 80% 29.73 in 7.0 mi NNW 23.0 mph - N/A   Overcast
11:53 PM 23.0 °F 8.0 °F 19.4 °F 86% 29.73 in 3.0 mi NW 20.7 mph - N/A   Overcast
11:54 PM 23.0 °F 7.6 °F 19.4 °F 86% 29.73 in 2.4 mi NW 21.9 mph - N/A   Overcast